Cloud_Cover
100 40 100 100 100 97 31 54 97 100 55 100 22 86 75 100 100 8 7 0 0 0 4 4 10 11 12 19 7 43 100 19 16 18 12 22 27 100 100 100 100 100 100
48 38 98 98 38 84 87 97 100 77 77 93 61 94 100 100 100 3 63 2 0 1 5 8 10 20 22 72 70 56 25 76 100 80 14 26 10 12 49 100 100 100 100
32 5 76 100 33 100 55 100 81 30 84 100 100 95 100 100 100 97 100 98 4 38 0 53 13 94 100 100 96 34 2 8 53 63 83 3 5 100 90 12 100 100 100
79 5 5 91 100 93 98 95 100 100 96 100 100 100 100 97 100 100 97 98 66 2 0 0 0 78 97 48 89 25 6 14 26 37 19 100 14 5 0 0 54 100 100
78 96 41 8 84 88 96 56 100 100 100 100 100 100 100 100 100 100 48 100 13 0 0 0 0 3 92 100 99 92 98 96 99 72 73 15 22 27 99 24 0 19 72
66 5 5 5 9 97 99 96 94 100 100 100 100 100 100 100 100 100 99 100 97 0 0 0 0 0 0 0 2 4 23 4 94 100 100 97 94 99 100 99 83 87 93
100 89 23 19 5 34 85 93 50 87 100 100 100 100 100 100 100 100 100 100 2 0 0 0 0 0 0 0 0 0 3 0 0 22 96 5 94 100 100 100 100 100 100
74 97 99 75 97 21 19 30 5 70 67 100 100 46 100 89 100 100 100 50 5 0 0 0 0 0 0 0 0 0 0 0 0 0 0 0 0 13 65 3 86 100 100
99 97 94 100 77 6 57 20 52 67 75 100 100 100 96 100 100 100 100 94 2 46 0 0 0 0 2 0 0 0 0 0 0 0 12 24 23 1 7 94 100 100 100
100 100 98 100 100 100 90 100 74 14 31 85 100 99 100 100 99 100 100 100 13 70 0 0 0 0 0 0 0 0 0 0 2 42 100 100 100 100 100 100 100 100 100
100 100 100 100 100 100 98 99 62 98 34 100 100 100 100 100 100 100 100 100 30 26 0 0 0 0 0 0 0 5 10 83 67 93 80 32 50 100 100 100 100 100 100
91 100 100 97 100 97 96 92 74 5 47 89 100 100 99 100 100 100 100 100 41 90 2 0 0 0 0 0 0 2 15 62 54 9 5 5 5 51 70 16 50 96 60
2 90 100 100 100 89 100 98 100 79 96 87 83 100 99 100 100 99 100 100 100 36 13 8 2 0 0 0 0 2 7 24 58 20 12 2 5 5 11 5 25 5 16
0 2 100 100 100 94 100 100 100 100 32 55 87 100 100 100 100 63 99 100 100 87 30 0 12 0 0 0 0 0 4 5 5 0 5 5 5 5 8 6 66 31 22
5 5 69 100 100 93 100 100 100 100 78 100 100 100 100 100 100 66 100 100 83 45 30 0 0 0 0 0 0 0 0 0 0 0 0 5 5 4 13 73 53 83 28
0 5 7 96 100 100 100 90 90 100 99 100 100 100 100 100 100 91 100 100 82 68 57 1 0 0 0 0 0 0 0 0 5 5 5 5 5 5 99 97 81 94 100
0 0 17 99 100 82 100 100 100 100 100 100 100 100 100 100 100 98 100 100 87 56 95 71 0 0 0 0 0 0 0 0 5 3 5 14 5 5 5 47 94 100 99
0 0 7 96 69 100 91 100 100 100 100 100 100 100 100 100 100 98 44 98 5 88 87 93 0 0 0 0 0 0 0 0 0 5 45 95 93 65 52 100 56 87 73
0 0 3 100 90 90 64 19 92 100 100 100 100 100 100 100 100 90 45 21 100 100 46 100 71 1 0 0 0 0 0 0 0 5 9 42 100 21 11 60 66 5 5
0 0 0 49 100 100 94 85 83 100 100 100 100 100 100 100 100 100 98 5 100 100 100 100 100 10 0 0 0 0 0 5 0 5 5 6 10 7 31 15 5 22 100
0 0 11 10 95 100 100 100 100 100 100 100 100 100 100 100 58 100 94 24 91 100 100 100 19 97 0 0 0 0 0 1 5 5 5 5 49 97 64 12 58 100 100
2 3 16 100 100 100 100 100 100 100 100 100 100 100 100 60 100 100 100 97 100 100 100 100 100 72 0 0 0 0 0 14 0 5 0 5 6 5 5 5 100 69 21
4 5 46 82 100 23 83 98 100 100 100 100 100 100 100 100 100 97 25 78 89 100 100 100 61 1 0 0 0 0 0 0 0 0 0 0 0 0 0 1 29 30 100
16 100 69 100 100 100 98 99 100 100 100 100 100 97 100 91 100 98 94 100 58 100 100 100 100 59 4 0 0 0 0 0 0 0 0 0 0 0 0 1 5 72 100
69 100 100 100 100 100 92 100 100 98 54 100 100 100 97 100 98 17 83 100 100 100 100 100 39 3 3 0 0 0 0 0 0 0 0 0 0 0 0 1 0 20 100
12 100 100 100 84 100 100 100 63 86 73 94 100 100 100 97 5 38 90 100 63 100 100 76 5 4 0 0 0 0 0 0 0 0 0 0 0 0 0 0 7 96 100